Location: Ch�risy
(50.2331°N, 2.9131°E)
Time: 23:41:12
(UTC+00:00)

USA 234 - Pass Details

Date: 17 January 2021
Orbit: 1100 x 1107 km, 123.0° (Epoch: 27 February)

Event Time Altitude Azimuth Distance (km) Brightness Sun altitude
Exits shadow 19:06:22 58° 101° (ESE) 1,269 3.2 -26.4°
Maximum altitude 19:07:47 81° 27° (NNE) 1,121 3.1 -26.6°
Drops below altitude 10° 19:14:21 10° 302° (WNW) 2,969 6.2 -27.7°
Sets 19:16:50 0° 301° (WNW) 3,929 7.0 -28.1°
